Location: Alsip
(41.6689°N, 87.7387°W)
Time: 14:27:39
(UTC+00:00)

Cosmos 1782 Rocket - Pass Details

Date: 14 July 2020
Orbit: 606 x 633 km, 82.5° (Epoch: 04 August)

Event Time Altitude Azimuth Distance (km) Brightness Sun altitude
Exits shadow 09:21:46 - 191° (S) 2,070 5.8 -11.0°
Reaches altitude 10° 09:21:56 10° 191° (S) 2,001 5.7 -11.0°
Maximum altitude 09:26:22 78° 278° (W) 645 3.5 -10.4°
Drops below altitude 10° 09:30:49 10° 5° (N) 2,001 6.9 -9.7°
Sets 09:33:03 0° 7° (N) 2,907 7.8 -9.4°
